Regional Weather Roundup
Issued by NWS

Home | Current Version | Previous Version | Text Only | Print | Product List | Glossary Off
Versions: 1 2 3 4 5 6 7 8 9 10 11 12 13 14 15 16 17 18 19 20 21 22 23 24 25 26 27 28 29 30 31 32 33 34 35 36 37 38 39 40 41 42 43 44 45 46 47 48 49 50

000
ASUS43 KLMK 172202
RWRKY
KENTUCKY REGIONAL WEATHER ROUNDUP
NATIONAL WEATHER SERVICE LOUISVILLE KY
600 PM EDT WED SEP 17 2014

NOTE "FAIR" INDICATES FEW OR NO CLOUDS BELOW 12,000 FEET
WITH NO SIGNIFICANT WEATHER AND/OR OBSTRUCTIONS TO VISIBILITY.

KYZ001>023-026-027-061>063-070>075-172300-
WESTERN AND SOUTH CENTRAL KENTUCKY

CITY           SKY/WX    TMP DP  RH WIND       PRES   REMARKS
PADUCAH        PTSUNNY   73  56  54 S5        29.95R
HENDERSON      MOSUNNY   72  52  49 E6        29.94F
OWENSBORO      MOSUNNY   71  52  51 CALM      29.96F
HOPKINSVILLE   CLOUDY    71  54  55 SE8       29.94F
BOWLING GREEN  MOSUNNY   71  52  50 CALM      29.98S
GLASGOW        NOT AVBL
$$

KYZ024-025-028>034-038-045-046-053-172300-
NORTH CENTRAL KENTUCKY

CITY           SKY/WX    TMP DP  RH WIND       PRES   REMARKS
LOUISVILLE/SDF PTSUNNY   70  51  51 N3        29.97F
LOUISVILLE/LOU MOSUNNY   70  50  49 N3        29.98F
FORT KNOX      PTSUNNY   68  54  60 NE2       29.95F
$$

KYZ035>037-039>044-047>052-055>060-089>105-172300-
NORTHEAST KENTUCKY

CITY           SKY/WX    TMP DP  RH WIND       PRES   REMARKS
LEXINGTON      MOSUNNY   71  53  52 NE6       29.98F
COVINGTON      MOSUNNY   67  49  52 NW6       30.00F
FRANKFORT      SUNNY     69  51  52 NW3       29.98S
$$

KYZ054-064>069-076>088-106>120-172300-
SOUTHEAST KENTUCKY

CITY           SKY/WX    TMP DP  RH WIND       PRES   REMARKS
JACKSON        MOSUNNY   69  52  54 VRB3      29.99F
LONDON         SUNNY     71  51  49 N5        29.99S
SOMERSET       NOT AVBL
MIDDLESBORO    MOSUNNY   72  56  55 NW7       29.97S
MONTICELLO     CLEAR     73  54  51 N5        29.99F
$$



USA.gov is the U.S. government's official web portal to all federal, state and local government web resources and services.